Home   Weather   Enugu   Past weeks

Flag for Nigeria Past Weather in Enugu, Nigeria — Yesterday and Last 2 Weeks

Now
86 °F

Partly sunny.


Feels Like: 97 °F
Forecast: 75 / 92 °F
Wind: No wind

Location: Douala Obs.

Current Time: Jan 22, 2017 at 11:31:41 am

Latest Report: Jan 22, 2017 at 11:00 am


Visibility: N/A

Pressure: 29.83 "Hg

Humidity: 75%

Dew Point: 77 °F

Location of EnuguLocation

Past Weather in Enugu — Graph

°F

Enugu Temperature Yesterday

Maximum temperature yesterday: 93 °F (at 3:00 pm)
Minimum temperature yesterday: 79 °F (at 3:00 am)
Average temperature yesterday: 84 °F

High & Low Weather Summary for the Past Weeks

 TemperatureHumidityPressure
High93 °F (Jan 15, 2:00 pm)100% (Jan 7, 11:00 pm)29.89 "Hg (Jan 7, 11:00 pm)
Low75 °F (Jan 11, 5:00 am)55% (Jan 9, 4:00 pm)29.68 "Hg (Jan 9, 5:00 pm)
Average83 °F83%29.79 "Hg
* Reported Jan 7 10:00 am — Jan 22 10:00 am, Enugu, Weather by CustomWeather, © 2017

Note: Actual official high and low records may vary slightly from our data, if they occured in-between our weather recording intervals... More about our weather records

Advertising

Enugu Weather History for the Previous 24 Hours

Scroll right to see more
 ConditionsComfort  
Time TempWeatherWind HumidityBarometerVisibility
10:00 am
Sun, Jan 22
82 °FPartly sunny.1 mph84%29.86 "HgN/A
9:00 am81 °FPartly sunny.2 mph84%29.86 "Hg5 mi
8:00 am79 °FFog.1 mph89%29.83 "Hg1 mi
7:00 am77 °FThunderstorms. Fog.2 mph100%29.80 "Hg3 mi
6:00 am77 °FThunderstorms. Passing clouds.1 mph100%29.77 "Hg5 mi
5:00 am77 °FThunderstorms. Passing clouds.No wind100%29.77 "Hg4 mi
4:00 am79 °FThunderstorms. Partly cloudy.5 mph89%29.74 "Hg4 mi
3:00 am81 °FThunderstorms. Partly cloudy.6 mph94%29.77 "HgN/A
2:00 am81 °FThunderstorms. Partly cloudy.2 mph94%29.74 "HgN/A
1:00 am81 °FPassing clouds.No wind94%29.77 "HgN/A
12:00 am81 °FPassing clouds.No wind94%29.77 "HgN/A
11:00 pm
Sat, Jan 21
81 °FPassing clouds.No wind94%29.80 "HgN/A
10:00 pm82 °FPassing clouds.No wind89%29.83 "HgN/A
9:00 pm84 °FPassing clouds.3 mph84%29.83 "HgN/A
8:00 pm84 °FPassing clouds.2 mph84%29.80 "HgN/A
7:00 pm86 °FPassing clouds.5 mph79%29.74 "HgN/A
6:00 pm88 °FPartly sunny.5 mph75%29.74 "HgN/A
5:00 pm88 °FScattered clouds.8 mph75%29.74 "HgN/A
4:00 pm91 °FScattered clouds.10 mph63%29.74 "Hg5 mi
3:00 pm93 °FScattered clouds.8 mph59%29.74 "Hg5 mi
2:00 pm91 °FScattered clouds.9 mph59%29.74 "Hg5 mi
1:00 pm91 °FScattered clouds.6 mph59%29.77 "Hg5 mi
12:00 pm90 °FScattered clouds.6 mph67%29.80 "Hg5 mi
11:00 am88 °FPartly sunny.3 mph75%29.83 "Hg5 mi
Weather by CustomWeather, © 2017

See weather overviewHow to use our weather pages